TRA72P EHAM-EDDF

Flight info

Callsign TRA72P
Flight time 0h 42m
Altitude 31000
Route EDUPO Z739 MISGO DCT DIXAT DIXAT1B
Aircraft B738/M-SDE2E3FGHIRWXY/LB1

Departure

Time 2026-04-17 12:55
Airport Amsterdam Airport Schiphol (EHAM)

Arrival

Time 2026-04-17 13:37
Airport Frankfurt Main Airport (EDDF)
Time Latitude Longitude Altitude Speed Heading
2026-04-17 12:35 52.30445 4.76330 -2 ft 0 kts 238°
2026-04-17 12:44 52.30445 4.76331 -2 ft 2 kts 238°
2026-04-17 12:44 52.30455 4.76358 -2 ft 3 kts 238°
2026-04-17 12:45 52.30468 4.76378 -2 ft 3 kts 183°
2026-04-17 12:45 52.30479 4.76376 -2 ft 0 kts 153°
2026-04-17 12:46 52.30474 4.76381 -2 ft 5 kts 148°
2026-04-17 12:46 52.30428 4.76454 -2 ft 10 kts 136°
2026-04-17 12:47 52.30365 4.76510 -2 ft 10 kts 152°
2026-04-17 12:47 52.30331 4.76598 -2 ft 8 kts 80°
2026-04-17 12:47 52.30342 4.76697 -2 ft 10 kts 114°
2026-04-17 12:47 52.30310 4.76801 -2 ft 12 kts 79°
2026-04-17 12:48 52.30353 4.76929 -2 ft 15 kts 58°
2026-04-17 12:48 52.30413 4.77083 -2 ft 17 kts 57°
2026-04-17 12:48 52.30477 4.77251 -2 ft 17 kts 58°
2026-04-17 12:48 52.30534 4.77397 -2 ft 12 kts 57°
2026-04-17 12:49 52.30557 4.77458 -2 ft 0 kts 58°
2026-04-17 12:51 52.30561 4.77467 -2 ft 5 kts 58°
2026-04-17 12:51 52.30568 4.77535 -2 ft 7 kts 109°
2026-04-17 12:51 52.30525 4.77581 -2 ft 8 kts 150°
2026-04-17 12:52 52.30482 4.77619 -2 ft 7 kts 154°
2026-04-17 12:52 52.30435 4.77641 -2 ft 7 kts 182°
2026-04-17 12:52 52.30400 4.77597 -3 ft 5 kts 235°
2026-04-17 12:52 52.30397 4.77591 -3 ft 0 kts 235°
2026-04-17 12:53 52.30396 4.77589 -3 ft 0 kts 235°
2026-04-17 12:53 52.30394 4.77584 -3 ft 0 kts 234°
2026-04-17 12:54 52.30379 4.77547 -3 ft 20 kts 237°
2026-04-17 12:54 52.30158 4.76971 -4 ft 98 kts 238°
2026-04-17 12:54 52.29675 4.75713 31 ft 158 kts 239°
2026-04-17 12:55 52.29111 4.74125 766 ft 160 kts 237°
2026-04-17 12:55 52.28501 4.72573 1674 ft 163 kts 235°
2026-04-17 12:55 52.27854 4.70942 2267 ft 184 kts 235°
2026-04-17 12:55 52.27089 4.69142 2609 ft 204 kts 225°
2026-04-17 12:56 52.25872 4.67938 3136 ft 210 kts 193°
2026-04-17 12:56 52.24400 4.68025 3774 ft 222 kts 163°
2026-04-17 12:56 52.23084 4.69566 4215 ft 248 kts 125°
2026-04-17 12:56 52.22282 4.72037 5423 ft 236 kts 120°
2026-04-17 12:57 52.21551 4.74397 6435 ft 234 kts 121°
2026-04-17 12:57 52.20785 4.76764 7092 ft 242 kts 121°
2026-04-17 12:57 52.19949 4.79262 7496 ft 264 kts 123°
2026-04-17 12:57 52.19000 4.81921 8025 ft 276 kts 124°
2026-04-17 12:58 52.18066 4.84638 8978 ft 273 kts 121°
2026-04-17 12:58 52.17154 4.87430 9554 ft 288 kts 121°
2026-04-17 12:58 52.16201 4.90361 10182 ft 297 kts 121°
2026-04-17 12:58 52.15214 4.93389 10626 ft 312 kts 121°
2026-04-17 12:59 52.14150 4.96635 10797 ft 337 kts 121°
2026-04-17 12:59 52.13009 5.00107 11016 ft 357 kts 121°
2026-04-17 12:59 52.11846 5.03658 11974 ft 350 kts 121°
2026-04-17 12:59 52.10715 5.07117 13124 ft 341 kts 121°
2026-04-17 13:00 52.09612 5.10483 14210 ft 334 kts 121°
2026-04-17 13:00 52.08516 5.13812 14962 ft 335 kts 122°
2026-04-17 13:00 52.07405 5.17166 15595 ft 339 kts 122°
2026-04-17 13:00 52.06279 5.20564 16226 ft 344 kts 122°
2026-04-17 13:01 52.05137 5.24006 16872 ft 348 kts 122°
2026-04-17 13:01 52.03983 5.27483 17520 ft 351 kts 122°
2026-04-17 13:01 52.02845 5.30918 18566 ft 340 kts 122°
2026-04-17 13:01 52.01741 5.34245 19278 ft 339 kts 122°
2026-04-17 13:02 52.00596 5.37677 19796 ft 344 kts 122°
2026-04-17 13:02 51.99446 5.41119 20294 ft 349 kts 122°
2026-04-17 13:02 51.98284 5.44594 20843 ft 352 kts 122°
2026-04-17 13:02 51.97111 5.48100 21416 ft 355 kts 122°
2026-04-17 13:03 51.95931 5.51627 21980 ft 357 kts 122°
2026-04-17 13:03 51.94739 5.55183 22509 ft 361 kts 122°
2026-04-17 13:03 51.93533 5.58774 23025 ft 365 kts 122°
2026-04-17 13:03 51.92314 5.62399 23538 ft 368 kts 122°
2026-04-17 13:04 51.91100 5.66004 24006 ft 372 kts 122°
2026-04-17 13:04 51.89819 5.69798 24121 ft 387 kts 122°
2026-04-17 13:04 51.88503 5.73687 24342 ft 399 kts 121°
2026-04-17 13:04 51.87164 5.77648 24759 ft 403 kts 121°
2026-04-17 13:05 51.85834 5.81583 25239 ft 405 kts 121°
2026-04-17 13:05 51.84461 5.85640 25708 ft 407 kts 121°
2026-04-17 13:05 51.83111 5.89621 26130 ft 409 kts 121°
2026-04-17 13:05 51.81734 5.93669 26516 ft 413 kts 121°
2026-04-17 13:06 51.80345 5.97745 26893 ft 416 kts 121°
2026-04-17 13:06 51.78943 6.01855 27277 ft 419 kts 121°
2026-04-17 13:06 51.77528 6.05987 27662 ft 422 kts 121°
2026-04-17 13:06 51.76101 6.10147 28035 ft 425 kts 121°
2026-04-17 13:07 51.74661 6.14332 28405 ft 428 kts 121°
2026-04-17 13:07 51.73212 6.18548 28759 ft 431 kts 121°
2026-04-17 13:07 51.72226 6.21408 29009 ft 433 kts 121°
2026-04-17 13:07 51.70780 6.25605 29358 ft 436 kts 121°
2026-04-17 13:08 51.69299 6.29896 29699 ft 438 kts 121°
2026-04-17 13:08 51.67816 6.34197 30120 ft 439 kts 120°
2026-04-17 13:08 51.66330 6.38498 30458 ft 441 kts 120°
2026-04-17 13:08 51.64827 6.42816 30713 ft 444 kts 121°
2026-04-17 13:09 51.63151 6.46992 30954 ft 445 kts 130°
2026-04-17 13:09 51.61140 6.50770 31218 ft 445 kts 134°
2026-04-17 13:09 51.59039 6.54496 31193 ft 453 kts 134°
2026-04-17 13:10 51.54729 6.62074 31206 ft 466 kts 134°
2026-04-17 13:10 51.50343 6.69921 31204 ft 475 kts 133°
2026-04-17 13:11 51.45924 6.77849 31187 ft 477 kts 133°
2026-04-17 13:11 51.41490 6.85768 31195 ft 478 kts 133°
2026-04-17 13:12 51.37218 6.93922 31199 ft 478 kts 129°
2026-04-17 13:12 51.31102 7.06421 30515 ft 480 kts 129°
2026-04-17 13:13 51.29022 7.10587 29812 ft 479 kts 130°
2026-04-17 13:13 51.26838 7.14562 29252 ft 472 kts 140°
2026-04-17 13:13 51.24144 7.17410 28744 ft 460 kts 156°
2026-04-17 13:13 51.21272 7.19602 28205 ft 456 kts 157°
2026-04-17 13:14 51.18420 7.21756 27686 ft 451 kts 156°
2026-04-17 13:14 51.15604 7.23928 27158 ft 448 kts 156°
2026-04-17 13:14 51.12823 7.26110 26649 ft 444 kts 156°
2026-04-17 13:14 51.10079 7.28314 26132 ft 440 kts 155°
2026-04-17 13:15 51.07371 7.30557 25631 ft 437 kts 154°
2026-04-17 13:15 51.04689 7.32789 25124 ft 433 kts 154°
2026-04-17 13:15 51.02024 7.34998 24623 ft 431 kts 155°
2026-04-17 13:15 50.99373 7.37185 24116 ft 429 kts 155°
2026-04-17 13:16 50.96691 7.39388 23544 ft 427 kts 155°
2026-04-17 13:16 50.94063 7.41547 22965 ft 423 kts 155°
2026-04-17 13:16 50.91459 7.43682 22434 ft 419 kts 155°
2026-04-17 13:16 50.88881 7.45787 21935 ft 415 kts 155°
2026-04-17 13:17 50.86325 7.47878 21429 ft 411 kts 155°
2026-04-17 13:17 50.83797 7.49950 20937 ft 408 kts 155°
2026-04-17 13:17 50.81290 7.51999 20446 ft 404 kts 155°
2026-04-17 13:17 50.78799 7.54030 19963 ft 401 kts 155°
2026-04-17 13:18 50.76327 7.56040 19489 ft 398 kts 155°
2026-04-17 13:18 50.73873 7.58033 19021 ft 395 kts 155°
2026-04-17 13:18 50.71437 7.60011 18558 ft 393 kts 155°
2026-04-17 13:18 50.69013 7.61977 18018 ft 390 kts 155°
2026-04-17 13:19 50.66636 7.63897 17525 ft 387 kts 155°
2026-04-17 13:19 50.64249 7.65828 17044 ft 384 kts 155°
2026-04-17 13:19 50.61882 7.67741 16574 ft 381 kts 155°
2026-04-17 13:19 50.59543 7.69631 16125 ft 377 kts 155°
2026-04-17 13:20 50.57211 7.71521 15704 ft 373 kts 155°
2026-04-17 13:20 50.54910 7.73374 15285 ft 370 kts 155°
2026-04-17 13:20 50.52633 7.75206 14874 ft 366 kts 155°
2026-04-17 13:20 50.50371 7.77023 14469 ft 363 kts 155°
2026-04-17 13:21 50.48127 7.78825 14042 ft 362 kts 155°
2026-04-17 13:21 50.45887 7.80620 13601 ft 360 kts 155°
2026-04-17 13:21 50.43656 7.82407 13188 ft 360 kts 155°
2026-04-17 13:21 50.41478 7.84203 13161 ft 350 kts 147°
2026-04-17 13:22 50.39744 7.86919 13102 ft 358 kts 124°
2026-04-17 13:22 50.38581 7.90335 12929 ft 354 kts 115°
2026-04-17 13:22 50.37609 7.93821 12826 ft 343 kts 114°
2026-04-17 13:22 50.36695 7.97206 12695 ft 333 kts 113°
2026-04-17 13:23 50.35820 8.00481 12411 ft 329 kts 113°
2026-04-17 13:23 50.34941 8.03783 12038 ft 327 kts 113°
2026-04-17 13:23 50.34056 8.07106 11681 ft 325 kts 113°
2026-04-17 13:23 50.33188 8.10364 11356 ft 323 kts 113°
2026-04-17 13:24 50.32337 8.13566 11005 ft 322 kts 113°
2026-04-17 13:24 50.31483 8.16776 10707 ft 319 kts 113°
2026-04-17 13:24 50.30632 8.19968 10401 ft 316 kts 113°
2026-04-17 13:24 50.29787 8.23123 10243 ft 314 kts 113°
2026-04-17 13:25 50.28935 8.26305 10223 ft 319 kts 113°
2026-04-17 13:25 50.28083 8.29492 10202 ft 316 kts 113°
2026-04-17 13:25 50.27247 8.32650 10193 ft 313 kts 110°
2026-04-17 13:25 50.26639 8.35892 10078 ft 310 kts 105°
2026-04-17 13:26 50.26131 8.39159 9702 ft 310 kts 104°
2026-04-17 13:26 50.25633 8.42497 8952 ft 321 kts 104°
2026-04-17 13:26 50.25131 8.45919 8436 ft 323 kts 103°
2026-04-17 13:26 50.24634 8.49335 8052 ft 321 kts 104°
2026-04-17 13:27 50.24150 8.52730 7659 ft 319 kts 103°
2026-04-17 13:27 50.23674 8.56106 7272 ft 317 kts 103°
2026-04-17 13:27 50.23213 8.59386 7193 ft 299 kts 103°
2026-04-17 13:27 50.22782 8.62454 7172 ft 280 kts 103°
2026-04-17 13:28 50.22383 8.65323 7171 ft 268 kts 103°
2026-04-17 13:28 50.22192 8.68189 7186 ft 258 kts 93°
2026-04-17 13:28 50.22126 8.70975 7067 ft 255 kts 93°
2026-04-17 13:28 50.22053 8.73778 6504 ft 267 kts 94°
2026-04-17 13:29 50.21975 8.76735 6000 ft 276 kts 94°
2026-04-17 13:29 50.21896 8.79730 5747 ft 275 kts 93°
2026-04-17 13:29 50.21816 8.82705 5487 ft 273 kts 93°
2026-04-17 13:29 50.21735 8.85660 5234 ft 272 kts 94°
2026-04-17 13:30 50.21656 8.88557 5150 ft 263 kts 93°
2026-04-17 13:30 50.21568 8.91357 5062 ft 254 kts 98°
2026-04-17 13:30 50.20986 8.93865 4966 ft 243 kts 128°
2026-04-17 13:30 50.19721 8.95481 4779 ft 235 kts 160°
2026-04-17 13:31 50.18139 8.95799 4549 ft 229 kts 192°
2026-04-17 13:31 50.16704 8.94902 4438 ft 221 kts 216°
2026-04-17 13:31 50.15550 8.93343 4201 ft 219 kts 223°
2026-04-17 13:31 50.14446 8.91737 4081 ft 214 kts 223°
2026-04-17 13:32 50.13386 8.90199 4020 ft 201 kts 223°
2026-04-17 13:32 50.12373 8.88738 4030 ft 199 kts 222°
2026-04-17 13:32 50.11359 8.87281 3994 ft 197 kts 222°
2026-04-17 13:32 50.10447 8.85717 3894 ft 197 kts 243°
2026-04-17 13:33 50.10059 8.83696 3696 ft 195 kts 252°
2026-04-17 13:33 50.09572 8.81692 3444 ft 195 kts 246°
2026-04-17 13:33 50.09069 8.79736 3179 ft 194 kts 248°
2026-04-17 13:33 50.08588 8.77782 2927 ft 192 kts 249°
2026-04-17 13:34 50.08121 8.75844 2669 ft 189 kts 249°
2026-04-17 13:34 50.07666 8.73947 2403 ft 184 kts 249°
2026-04-17 13:34 50.07227 8.72117 2156 ft 178 kts 249°
2026-04-17 13:34 50.06793 8.70304 1946 ft 178 kts 249°
2026-04-17 13:35 50.06375 8.68564 1722 ft 162 kts 249°
2026-04-17 13:35 50.05994 8.66975 1496 ft 154 kts 248°
2026-04-17 13:35 50.05615 8.65420 1290 ft 154 kts 249°
2026-04-17 13:35 50.05252 8.63855 1085 ft 155 kts 249°
2026-04-17 13:36 50.04882 8.62294 914 ft 154 kts 249°
2026-04-17 13:36 50.04485 8.60707 664 ft 160 kts 250°
2026-04-17 13:36 50.04102 8.59081 464 ft 160 kts 250°
2026-04-17 13:36 50.03724 8.57490 362 ft 147 kts 254°
2026-04-17 13:37 50.03424 8.56219 354 ft 103 kts 250°
2026-04-17 13:37 50.03235 8.55433 343 ft 58 kts 250°
2026-04-17 13:37 50.03178 8.55018 342 ft 28 kts 274°
2026-04-17 13:37 50.03201 8.54748 338 ft 22 kts 280°
2026-04-17 13:38 50.03216 8.54621 337 ft 0 kts 280°
2026-04-17 13:38 50.03216 8.54618 336 ft 3 kts 285°
2026-04-17 13:38 50.03257 8.54622 337 ft 10 kts 33°
2026-04-17 13:38 50.03303 8.54736 338 ft 15 kts 78°
2026-04-17 13:39 50.03355 8.54906 337 ft 20 kts 68°
2026-04-17 13:39 50.03411 8.55131 349 ft 25 kts 69°
2026-04-17 13:39 50.03475 8.55400 345 ft 27 kts 69°
2026-04-17 13:39 50.03539 8.55675 350 ft 27 kts 70°
2026-04-17 13:40 50.03604 8.55940 352 ft 25 kts 69°
2026-04-17 13:40 50.03664 8.56193 352 ft 25 kts 69°
2026-04-17 13:40 50.03727 8.56457 359 ft 27 kts 69°
2026-04-17 13:40 50.03794 8.56731 356 ft 27 kts 69°
2026-04-17 13:41 50.03858 8.57005 359 ft 27 kts 69°
2026-04-17 13:41 50.03921 8.57270 360 ft 25 kts 70°
2026-04-17 13:41 50.03981 8.57517 367 ft 24 kts 70°
2026-04-17 13:41 50.04037 8.57756 368 ft 24 kts 70°
2026-04-17 13:42 50.04101 8.58019 367 ft 28 kts 70°
2026-04-17 13:42 50.04174 8.58317 369 ft 32 kts 71°
2026-04-17 13:42 50.04253 8.58648 372 ft 34 kts 69°
2026-04-17 13:42 50.04334 8.58983 375 ft 32 kts 70°
2026-04-17 13:43 50.04411 8.59306 375 ft 25 kts 70°
2026-04-17 13:43 50.04476 8.59468 374 ft 16 kts 15°
2026-04-17 13:43 50.04592 8.59465 372 ft 18 kts 357°
2026-04-17 13:43 50.04728 8.59426 371 ft 22 kts 340°
2026-04-17 13:44 50.04853 8.59362 370 ft 18 kts 352°
2026-04-17 13:44 50.04975 8.59353 368 ft 18 kts 340°
2026-04-17 13:44 50.05068 8.59285 361 ft 11 kts 313°
2026-04-17 13:44 50.05068 8.59189 363 ft 7 kts 208°
2026-04-17 13:45 50.05011 8.59208 362 ft 7 kts 160°